Regional Weather Roundup
Issued by NWS

Home | Current Version | Previous Version | Graphics & Text | Print | Product List | Glossary On
Versions: 1 2 3 4 5 6 7 8 9 10 11 12 13 14 15 16 17 18 19 20 21 22 23 24 25 26 27 28 29 30 31 32 33 34 35 36 37 38 39 40 41 42 43 44 45 46 47 48 49 50
000
ASUS43 KFSD 270802
RWRSD

WEATHER ROUNDUP FOR SOUTH DAKOTA
NATIONAL WEATHER SERVICE SIOUX FALLS SD
300 AM CDT TUE SEP 27 2016

NOTE: "FAIR" INDICATES FEW OR NO CLOUDS BELOW 12,000 FEET WITH NO
SIGNIFICANT WEATHER AND/OR OBSTRUCTIONS TO VISIBILITY.


SDZ001>005-009-010-012>017-270900-
NORTHWEST AND NORTH CENTRAL SOUTH DAKOTA

CITY           SKY/WX    TMP DP  RH WIND       PRES   REMARKS
BUFFALO          N/A     53  42  66 W7        30.05F
FAITH            N/A     49  41  74 SW8       30.10S
MOBRIDGE       CLEAR     43  36  76 N5        30.04S
$$

SDZ012>016-024>037-041>051-057-063-072>074-270900-
SOUTHWEST AND SOUTH CENTRAL SOUTH DAKOTA

CITY           SKY/WX    TMP DP  RH WIND       PRES   REMARKS
RAPID CTY ARPT CLEAR     45  39  79 W3        30.15F
PIERRE         CLEAR     48  38  68 SW7       30.06F
CUSTER         CLOUDY    48  39  71 SW6       30.24S
ELLSWORTH AFB  CLEAR     49  41  75 W6        30.14F
PHILIP         CLEAR     45  40  82 W7        30.12S
PINE RIDGE     CLOUDY    36  34  92 CALM      30.17F
WINNER         FAIR      48  40  73 SW6       30.10F
$$

SDZ004>011-016>023-039-040-270900-
NORTHEAST SOUTH DAKOTA

CITY           SKY/WX    TMP DP  RH WIND       PRES   REMARKS
ABERDEEN       CLEAR     45  36  70 NW7       30.02S
WATERTOWN      CLEAR     49  37  63 W8        29.99F
SISSETON         N/A     51  34  52 NW10      29.95F
$$

SDZ017-020-022-023-036>040-048>070-270900-
SOUTHEAST SOUTH DAKOTA

CITY           SKY/WX    TMP DP  RH WIND       PRES   REMARKS
SIOUX FALLS    CLEAR     48  36  63 W9        30.02F
HURON          CLEAR     43  35  73 W6        30.03F
CHAMBERLAIN    CLEAR     47  42  82 CALM      30.08F
MITCHELL       CLEAR     50  37  61 W10       30.05F
YANKTON        CLEAR     54  39  58 W8        30.05F
$$

ABBREVIATIONS USED IN REMARKS
   TC - TEMPERATURE IN CELSIUS
  WCI - WIND CHILL INDEX
   HX - HEAT INDEX
  VSB - VISIBILITY





USA.gov is the U.S. government's official web portal to all federal, state and local government web resources and services.